TimeCST,TemperatureF,Dew PointF,Humidity,Sea Level PressureIn,VisibilityMPH,Wind Direction,Wind SpeedMPH,Gust SpeedMPH,PrecipitationIn,Events,Conditions,WindDirDegrees,DateUTC
12:15 AM,42.8,42.4,99,29.83,2.5,NNE,3.5,-,N/A,,Overcast,20,2012-12-08 06:15:00
12:35 AM,42.8,42.4,99,29.84,2.5,North,4.6,-,N/A,,Overcast,360,2012-12-08 06:35:00
12:55 AM,42.8,42.4,99,29.83,2.5,North,3.5,-,N/A,,Overcast,10,2012-12-08 06:55:00
1:15 AM,42.8,42.4,99,29.83,3.0,Calm,Calm,-,N/A,,Overcast,0,2012-12-08 07:15:00
1:35 AM,42.8,42.4,99,29.83,2.5,Calm,Calm,-,N/A,,Overcast,0,2012-12-08 07:35:00
1:55 AM,42.8,42.3,98,29.83,2.0,Calm,Calm,-,N/A,,Overcast,0,2012-12-08 07:55:00
2:15 AM,42.8,42.3,98,29.84,1.8,NNW,3.5,-,N/A,,Overcast,330,2012-12-08 08:15:00
2:35 AM,42.8,42.1,97,29.83,2.0,NNW,3.5,-,N/A,,Overcast,330,2012-12-08 08:35:00
2:55 AM,42.4,42.1,99,29.83,2.0,NW,3.5,-,N/A,,Overcast,320,2012-12-08 08:55:00
3:15 AM,42.4,41.9,98,29.83,2.0,NNW,3.5,-,N/A,,Overcast,330,2012-12-08 09:15:00
3:35 AM,42.4,41.9,98,29.82,1.5,NNW,4.6,-,N/A,,Overcast,340,2012-12-08 09:35:00
4:15 AM,42.3,41.9,99,29.81,1.5,Calm,Calm,-,N/A,,Overcast,0,2012-12-08 10:15:00
4:35 AM,42.3,41.9,99,29.83,1.5,NW,3.5,-,N/A,,Overcast,320,2012-12-08 10:35:00
4:55 AM,42.3,41.9,99,29.84,1.2,NW,5.8,-,N/A,,Overcast,320,2012-12-08 10:55:00
5:15 AM,42.3,41.9,99,29.85,1.5,WNW,4.6,-,N/A,,Overcast,300,2012-12-08 11:15:00
5:35 AM,42.1,41.9,99,29.84,2.0,Calm,Calm,-,N/A,,Overcast,0,2012-12-08 11:35:00
5:55 AM,41.7,41.4,99,29.84,2.0,Calm,Calm,-,N/A,,Overcast,0,2012-12-08 11:55:00
6:15 AM,41.7,41.4,99,29.85,2.5,Calm,Calm,-,N/A,,Overcast,0,2012-12-08 12:15:00
6:55 AM,42.1,41.7,99,29.86,2.5,NW,4.6,-,N/A,,Overcast,310,2012-12-08 12:55:00
7:15 AM,42.1,41.9,99,29.87,2.0,NNW,8.1,-,N/A,,Overcast,330,2012-12-08 13:15:00
7:35 AM,42.1,41.9,99,29.87,1.0,NNW,6.9,-,N/A,,Overcast,330,2012-12-08 13:35:00
8:15 AM,42.3,41.9,99,29.88,2.0,NNW,8.1,-,N/A,,Overcast,330,2012-12-08 14:15:00
8:35 AM,42.3,41.9,99,29.90,3.0,NW,8.1,-,N/A,,Overcast,320,2012-12-08 14:35:00
8:55 AM,42.3,41.9,99,29.90,4.0,NNW,10.4,18.4,N/A,,Overcast,330,2012-12-08 14:55:00
9:15 AM,42.6,42.1,98,29.91,4.0,NNW,10.4,-,N/A,,Overcast,330,2012-12-08 15:15:00
9:35 AM,42.8,42.1,97,29.92,5.0,NNW,9.2,-,N/A,,Overcast,340,2012-12-08 15:35:00
9:55 AM,43.2,42.1,96,29.93,7.0,NNW,6.9,-,N/A,,Overcast,330,2012-12-08 15:55:00
10:15 AM,43.3,42.1,95,29.94,7.0,NNW,9.2,-,N/A,,Overcast,330,2012-12-08 16:15:00
10:35 AM,43.2,42.1,96,29.93,5.0,North,10.4,-,N/A,,Overcast,350,2012-12-08 16:35:00
10:55 AM,43.0,42.1,97,29.93,10.0,North,10.4,-,N/A,,Overcast,350,2012-12-08 16:55:00
11:15 AM,43.7,41.9,93,29.93,10.0,North,10.4,-,N/A,,Overcast,360,2012-12-08 17:15:00
11:35 AM,43.2,41.0,92,29.93,10.0,North,9.2,-,N/A,,Overcast,350,2012-12-08 17:35:00
11:55 AM,42.4,40.1,91,29.93,10.0,NNW,16.1,-,N/A,,Overcast,330,2012-12-08 17:55:00
12:15 PM,41.2,38.8,91,29.94,10.0,NNW,18.4,-,N/A,,Overcast,330,2012-12-08 18:15:00
12:35 PM,40.8,38.3,91,29.94,10.0,North,13.8,-,N/A,,Overcast,350,2012-12-08 18:35:00
12:55 PM,41.0,38.5,91,29.95,10.0,North,12.7,-,N/A,,Overcast,10,2012-12-08 18:55:00
1:15 PM,41.0,38.7,91,29.96,10.0,North,11.5,-,N/A,,Mostly Cloudy,360,2012-12-08 19:15:00
1:35 PM,41.4,38.1,88,29.97,10.0,NNE,11.5,-,N/A,,Mostly Cloudy,20,2012-12-08 19:35:00
1:55 PM,41.2,37.4,86,29.98,10.0,NNE,8.1,-,N/A,,Overcast,20,2012-12-08 19:55:00
2:15 PM,40.3,36.7,87,29.98,10.0,NNE,9.2,-,N/A,,Overcast,30,2012-12-08 20:15:00
2:35 PM,39.7,36.5,88,29.99,10.0,NE,10.4,-,N/A,,Overcast,40,2012-12-08 20:35:00
2:55 PM,39.0,36.3,90,30.00,10.0,NE,8.1,-,N/A,,Overcast,40,2012-12-08 20:55:00
3:15 PM,38.7,36.0,90,30.00,10.0,NNE,10.4,-,N/A,,Overcast,30,2012-12-08 21:15:00
3:35 PM,38.3,35.8,91,30.02,10.0,NNE,8.1,-,N/A,,Overcast,30,2012-12-08 21:35:00
3:55 PM,38.1,35.4,90,30.02,10.0,NNE,8.1,-,N/A,,Overcast,20,2012-12-08 21:55:00
4:15 PM,37.8,34.9,89,30.03,10.0,NNE,4.6,-,N/A,,Overcast,30,2012-12-08 22:15:00
4:35 PM,37.8,34.7,89,30.03,10.0,NE,5.8,-,N/A,,Overcast,40,2012-12-08 22:35:00
4:55 PM,37.8,34.7,89,30.04,10.0,East,3.5,-,N/A,,Overcast,80,2012-12-08 22:55:00
5:15 PM,37.6,34.7,89,30.04,10.0,NE,5.8,-,N/A,,Overcast,40,2012-12-08 23:15:00
5:35 PM,37.4,35.2,92,30.05,10.0,NE,4.6,-,N/A,,Overcast,40,2012-12-08 23:35:00
5:55 PM,37.0,35.1,93,30.06,10.0,NE,6.9,-,N/A,,Overcast,40,2012-12-08 23:55:00
6:15 PM,37.0,35.1,93,30.06,10.0,NE,8.1,-,N/A,,Overcast,50,2012-12-09 00:15:00
6:35 PM,36.9,34.3,91,30.06,10.0,ENE,8.1,-,N/A,,Mostly Cloudy,70,2012-12-09 00:35:00
6:55 PM,36.7,33.4,88,30.07,10.0,ENE,8.1,-,N/A,,Mostly Cloudy,70,2012-12-09 00:55:00
7:15 PM,36.0,32.9,89,30.08,10.0,ENE,5.8,-,N/A,,Clear,60,2012-12-09 01:15:00
7:35 PM,35.6,33.1,91,30.08,10.0,NE,5.8,-,N/A,,Scattered Clouds,50,2012-12-09 01:35:00
7:55 PM,35.6,33.4,92,30.08,10.0,ENE,8.1,-,N/A,,Mostly Cloudy,60,2012-12-09 01:55:00
8:35 PM,35.6,32.9,90,30.08,10.0,NE,6.9,-,N/A,,Overcast,50,2012-12-09 02:35:00
8:55 PM,35.6,32.9,90,30.08,10.0,ENE,8.1,-,N/A,,Mostly Cloudy,60,2012-12-09 02:55:00
9:15 PM,35.4,32.9,91,30.08,10.0,ENE,11.5,-,N/A,,Overcast,70,2012-12-09 03:15:00
9:35 PM,35.4,32.9,91,30.08,10.0,ENE,9.2,-,N/A,,Overcast,60,2012-12-09 03:35:00
9:55 PM,35.1,32.9,92,30.09,10.0,ENE,9.2,-,N/A,,Overcast,60,2012-12-09 03:55:00
10:15 PM,35.1,32.5,91,30.09,10.0,ENE,9.2,-,N/A,,Overcast,60,2012-12-09 04:15:00
10:35 PM,34.9,32.4,91,30.09,10.0,ENE,8.1,-,N/A,,Overcast,60,2012-12-09 04:35:00
10:55 PM,34.7,32.2,91,30.10,10.0,East,8.1,-,N/A,,Overcast,90,2012-12-09 04:55:00
11:15 PM,34.7,32.0,90,30.10,10.0,East,10.4,-,N/A,,Scattered Clouds,80,2012-12-09 05:15:00
11:35 PM,34.7,32.0,90,30.10,10.0,ENE,10.4,-,N/A,,Clear,70,2012-12-09 05:35:00
11:55 PM,34.2,32.0,92,30.10,10.0,ENE,9.2,-,N/A,,Scattered Clouds,70,2012-12-09 05:55:00